Terminal Aerodrome Forecast
Issued by NWS Wichita, KS

Home | Current Version | Previous Version | Text Only | Print | Product List | Glossary On
Versions: 1 2 3 4 5 6 7 8 9 10 11 12 13 14
000
FTUS43 KICT 210801 AAA
TAFICT
TAF AMD
KICT 210801Z 2108/2206 26005KT P6SM SKC
     FM211200 00000KT 2SM BR SKC
      TEMPO 2112/2115 5SM BR SCT100
     FM211500 17004KT P6SM BKN100=

USA.gov is the U.S. government's official web portal to all federal, state and local government web resources and services.